TimeEDT,TemperatureF,Dew PointF,Humidity,Sea Level PressureIn,VisibilityMPH,Wind Direction,Wind SpeedMPH,Gust SpeedMPH,PrecipitationIn,Events,Conditions,WindDirDegrees,DateUTC
12:56 AM,71.1,69.1,93,29.95,10.0,SW,3.5,-,N/A,,Clear,230,2013-07-19 04:56:00
1:56 AM,72.0,70.0,93,29.95,10.0,Calm,Calm,-,N/A,,Clear,0,2013-07-19 05:56:00
2:56 AM,71.1,70.0,96,29.95,10.0,Calm,Calm,-,N/A,,Clear,0,2013-07-19 06:56:00
3:56 AM,71.1,70.0,96,29.93,10.0,Calm,Calm,-,N/A,,Clear,0,2013-07-19 07:56:00
4:56 AM,71.1,70.0,96,29.93,10.0,Calm,Calm,-,N/A,,Clear,0,2013-07-19 08:56:00
5:56 AM,72.0,70.0,93,29.92,10.0,Calm,Calm,-,N/A,,Clear,0,2013-07-19 09:56:00
6:56 AM,79.0,73.9,84,29.91,10.0,West,3.5,-,N/A,,Clear,260,2013-07-19 10:56:00
7:56 AM,82.0,73.9,76,29.90,10.0,SW,5.8,-,N/A,,Scattered Clouds,220,2013-07-19 11:56:00
8:56 AM,87.1,73.9,65,29.90,10.0,SW,6.9,-,N/A,,Clear,230,2013-07-19 12:56:00
9:56 AM,90.0,72.0,55,29.89,10.0,West,12.7,23.0,N/A,,Clear,270,2013-07-19 13:56:00
10:56 AM,93.0,70.0,47,29.88,10.0,WSW,15.0,21.9,N/A,,Mostly Cloudy,250,2013-07-19 14:56:00
11:56 AM,95.0,68.0,41,29.86,10.0,West,16.1,25.3,N/A,,Clear,260,2013-07-19 15:56:00
12:56 PM,96.1,69.1,41,29.83,10.0,West,15.0,24.2,N/A,,Clear,260,2013-07-19 16:56:00
1:56 PM,97.0,70.0,41,29.81,10.0,WSW,15.0,26.5,N/A,,Clear,250,2013-07-19 17:56:00
2:38 PM,96.8,71.6,44,29.77,10.0,SW,16.1,25.3,N/A,,Scattered Clouds,230,2013-07-19 18:38:00
2:56 PM,97.0,70.0,41,29.79,10.0,SW,16.1,25.3,N/A,,Scattered Clouds,230,2013-07-19 18:56:00
3:56 PM,96.1,71.1,44,29.76,10.0,SW,13.8,20.7,N/A,,Scattered Clouds,230,2013-07-19 19:56:00
4:56 PM,96.1,71.1,44,29.75,10.0,WSW,16.1,23.0,N/A,,Partly Cloudy,240,2013-07-19 20:56:00
5:56 PM,93.0,72.0,50,29.73,10.0,SW,17.3,21.9,N/A,,Clear,220,2013-07-19 21:56:00
6:56 PM,90.0,75.0,61,29.74,9.0,SSW,10.4,-,N/A,,Clear,210,2013-07-19 22:56:00
7:56 PM,87.1,75.9,69,29.76,8.0,SSW,11.5,-,N/A,,Clear,200,2013-07-19 23:56:00
8:56 PM,84.9,77.0,77,29.76,8.0,SSW,10.4,-,N/A,,Clear,200,2013-07-20 00:56:00
9:56 PM,84.0,77.0,79,29.76,8.0,SSW,11.5,18.4,N/A,,Clear,210,2013-07-20 01:56:00
10:56 PM,82.9,75.9,79,29.77,8.0,SSW,10.4,-,N/A,,Clear,210,2013-07-20 02:56:00
11:56 PM,82.0,75.0,79,29.75,8.0,SSW,8.1,-,N/A,,Clear,210,2013-07-20 03:56:00